Time,TemperatureF,DewpointF,PressureIn,WindDirection,WindDirectionDegrees,WindSpeedMPH,WindSpeedGustMPH,Humidity,HourlyPrecipIn,Conditions,Clouds,dailyrainin,SoftwareType,DateUTC
2013-01-13 00:00:00,18.5,-0.3,29.09,ENE,63,2.7,2.7,43,0.00,,---,0.00,VWS V14.01,2013-01-13 06:00:00,
2013-01-13 00:05:00,18.5,-0.3,29.09,East,100,3.1,3.1,43,0.00,,---,0.00,VWS V14.01,2013-01-13 06:05:00,
2013-01-13 00:10:00,18.1,-0.6,29.09,SSW,203,6.3,6.3,43,0.00,,---,0.00,VWS V14.01,2013-01-13 06:10:00,
2013-01-13 00:16:00,18.1,-0.6,29.09,NE,56,0.0,0.0,43,0.00,,---,0.00,VWS V14.01,2013-01-13 06:16:00,
2013-01-13 00:21:00,17.8,-0.9,29.09,ENE,74,3.6,3.6,43,0.00,,---,0.00,VWS V14.01,2013-01-13 06:21:00,
2013-01-13 00:26:00,17.6,-0.6,29.09,WNW,290,2.2,5.8,44,0.00,,---,0.00,VWS V14.01,2013-01-13 06:26:00,
2013-01-13 00:31:00,17.6,-0.6,29.09,South,183,4.0,4.0,44,0.00,,---,0.00,VWS V14.01,2013-01-13 06:31:00,
2013-01-13 00:37:00,17.4,-0.8,29.06,NE,39,6.3,6.3,44,0.00,,---,0.00,VWS V14.01,2013-01-13 06:37:00,
2013-01-13 00:42:00,17.2,-0.9,29.06,SE,145,3.6,3.6,44,0.00,,---,0.00,VWS V14.01,2013-01-13 06:42:00,
2013-01-13 00:48:00,17.1,-1.1,29.06,ENE,61,3.1,4.0,44,0.00,,---,0.00,VWS V14.01,2013-01-13 06:48:00,
2013-01-13 00:53:00,16.9,-1.2,29.09,NNE,19,2.7,2.7,44,0.00,,---,0.00,VWS V14.01,2013-01-13 06:53:00,
2013-01-13 00:59:00,16.7,-1.4,29.09,WSW,248,5.8,5.8,44,0.00,,---,0.00,VWS V14.01,2013-01-13 06:59:00,
2013-01-13 01:05:00,16.5,-1.6,29.09,East,90,0.0,0.0,44,0.00,,---,0.00,VWS V14.01,2013-01-13 07:05:00,
2013-01-13 01:11:00,16.5,-1.6,29.09,NNE,25,3.1,4.0,44,0.00,,---,0.00,VWS V14.01,2013-01-13 07:11:00,
2013-01-13 01:16:00,16.3,-1.7,29.09,NE,52,2.7,2.7,44,0.00,,---,0.00,VWS V14.01,2013-01-13 07:16:00,
2013-01-13 01:22:00,16.2,-1.9,29.09,ENE,74,2.7,2.7,44,0.00,,---,0.00,VWS V14.01,2013-01-13 07:22:00,
2013-01-13 01:27:00,16.2,-1.9,29.09,NNE,12,3.1,3.1,44,0.00,,---,0.00,VWS V14.01,2013-01-13 07:27:00,
2013-01-13 01:33:00,16.2,-1.9,29.09,NE,42,4.0,4.0,44,0.00,,---,0.00,VWS V14.01,2013-01-13 07:33:00,
2013-01-13 01:38:00,15.8,-1.8,29.09,NE,45,0.0,0.0,45,0.00,,---,0.00,VWS V14.01,2013-01-13 07:38:00,
2013-01-13 01:43:00,15.8,-1.8,29.09,ESE,111,0.0,3.1,45,0.00,,---,0.00,VWS V14.01,2013-01-13 07:43:00,
2013-01-13 01:49:00,15.8,-1.8,29.09,North,9,0.0,4.0,45,0.00,,---,0.00,VWS V14.01,2013-01-13 07:49:00,
2013-01-13 01:54:00,15.6,-1.9,29.09,NNE,31,0.0,3.6,45,0.00,,---,0.00,VWS V14.01,2013-01-13 07:54:00,
2013-01-13 02:00:00,15.6,-1.9,29.09,NNE,29,3.1,3.1,45,0.00,,---,0.00,VWS V14.01,2013-01-13 08:00:00,
2013-01-13 02:05:00,15.4,-2.1,29.09,NNE,26,0.0,0.0,45,0.00,,---,0.00,VWS V14.01,2013-01-13 08:05:00,
2013-01-13 02:11:00,15.3,-2.3,29.09,NE,34,0.0,0.0,45,0.00,,---,0.00,VWS V14.01,2013-01-13 08:11:00,
2013-01-13 02:17:00,15.3,-2.3,29.09,NNE,17,4.0,4.0,45,0.00,,---,0.00,VWS V14.01,2013-01-13 08:17:00,
2013-01-13 02:22:00,15.3,-2.3,29.09,NNE,13,4.9,4.9,45,0.00,,---,0.00,VWS V14.01,2013-01-13 08:22:00,
2013-01-13 02:27:00,15.1,-2.4,29.09,North,357,3.1,3.1,45,0.00,,---,0.00,VWS V14.01,2013-01-13 08:27:00,
2013-01-13 02:32:00,15.1,-2.4,29.09,West,266,5.4,5.4,45,0.00,,---,0.00,VWS V14.01,2013-01-13 08:32:00,
2013-01-13 02:38:00,14.9,-2.6,29.09,North,1,0.0,3.6,45,0.00,,---,0.00,VWS V14.01,2013-01-13 08:38:00,
2013-01-13 02:44:00,14.9,-2.6,29.09,NE,52,3.1,3.1,45,0.00,,---,0.00,VWS V14.01,2013-01-13 08:44:00,
2013-01-13 02:49:00,14.9,-2.6,29.12,East,87,0.0,0.0,45,0.00,,---,0.00,VWS V14.01,2013-01-13 08:49:00,
2013-01-13 02:54:00,14.5,-2.5,29.12,East,97,0.0,0.0,46,0.00,,---,0.00,VWS V14.01,2013-01-13 08:54:00,
2013-01-13 02:59:00,14.5,-2.5,29.12,East,81,0.0,0.0,46,0.00,,---,0.00,VWS V14.01,2013-01-13 08:59:00,
2013-01-13 03:04:00,14.4,-2.6,29.12,ENE,63,0.0,0.0,46,0.00,,---,0.00,VWS V14.01,2013-01-13 09:04:00,
2013-01-13 03:10:00,14.4,-2.6,29.12,East,85,0.0,0.0,46,0.00,,---,0.00,VWS V14.01,2013-01-13 09:10:00,
2013-01-13 03:15:00,14.2,-2.3,29.12,SSE,167,0.0,3.1,47,0.00,,---,0.00,VWS V14.01,2013-01-13 09:15:00,
2013-01-13 03:21:00,14.2,-2.3,29.12,NNE,32,0.0,0.0,47,0.00,,---,0.00,VWS V14.01,2013-01-13 09:21:00,
2013-01-13 03:26:00,14.0,-2.5,29.12,ESE,117,0.0,0.0,47,0.00,,---,0.00,VWS V14.01,2013-01-13 09:26:00,
2013-01-13 03:32:00,14.0,-2.1,29.12,South,181,0.0,0.0,48,0.00,,---,0.00,VWS V14.01,2013-01-13 09:32:00,
2013-01-13 03:37:00,14.0,-2.1,29.12,NE,39,0.0,0.0,48,0.00,,---,0.00,VWS V14.01,2013-01-13 09:37:00,
2013-01-13 03:42:00,13.8,-2.2,29.12,South,173,3.6,3.6,48,0.00,,---,0.00,VWS V14.01,2013-01-13 09:42:00,
2013-01-13 03:48:00,13.8,-2.2,29.12,South,179,4.0,4.0,48,0.00,,---,0.00,VWS V14.01,2013-01-13 09:48:00,
2013-01-13 03:53:00,13.8,-2.2,29.12,SW,219,0.0,0.0,48,0.00,,---,0.00,VWS V14.01,2013-01-13 09:53:00,
2013-01-13 03:59:00,13.8,-2.2,29.12,ENE,76,5.8,5.8,48,0.00,,---,0.00,VWS V14.01,2013-01-13 09:59:00,
2013-01-13 04:04:00,13.6,-2.4,29.12,NE,54,7.6,7.6,48,0.00,,---,0.00,VWS V14.01,2013-01-13 10:04:00,
2013-01-13 04:10:00,13.6,-2.4,29.12,NE,41,0.0,3.1,48,0.00,,---,0.00,VWS V14.01,2013-01-13 10:10:00,
2013-01-13 04:15:00,13.5,-2.6,29.12,North,9,0.0,0.0,48,0.00,,---,0.00,VWS V14.01,2013-01-13 10:15:00,
2013-01-13 04:21:00,13.3,-2.7,29.12,NNE,13,0.0,0.0,48,0.00,,---,0.00,VWS V14.01,2013-01-13 10:21:00,
2013-01-13 04:26:00,13.3,-2.7,29.15,ESE,112,2.7,2.7,48,0.00,,---,0.00,VWS V14.01,2013-01-13 10:26:00,
2013-01-13 04:31:00,13.3,-2.7,29.15,ENE,70,3.1,3.1,48,0.00,,---,0.00,VWS V14.01,2013-01-13 10:31:00,
2013-01-13 04:36:00,13.1,-2.9,29.15,ENE,74,0.0,0.0,48,0.00,,---,0.00,VWS V14.01,2013-01-13 10:36:00,
2013-01-13 04:42:00,12.9,-3.1,29.12,NE,55,0.0,0.0,48,0.00,,---,0.00,VWS V14.01,2013-01-13 10:42:00,
2013-01-13 04:47:00,12.9,-3.1,29.12,SW,216,3.6,3.6,48,0.00,,---,0.00,VWS V14.01,2013-01-13 10:47:00,
2013-01-13 04:53:00,12.7,-3.2,29.12,East,94,2.7,2.7,48,0.00,,---,0.00,VWS V14.01,2013-01-13 10:53:00,
2013-01-13 04:59:00,12.7,-3.2,29.12,NE,54,0.0,4.0,48,0.00,,---,0.00,VWS V14.01,2013-01-13 10:59:00,
2013-01-13 05:05:00,12.7,-3.2,29.12,NNE,21,4.0,4.0,48,0.00,,---,0.00,VWS V14.01,2013-01-13 11:05:00,
2013-01-13 05:10:00,12.7,-3.2,29.12,NE,52,0.0,0.0,48,0.00,,---,0.00,VWS V14.01,2013-01-13 11:10:00,
2013-01-13 05:16:00,12.6,-3.4,29.12,WSW,257,3.1,3.6,48,0.00,,---,0.00,VWS V14.01,2013-01-13 11:16:00,
2013-01-13 05:21:00,12.6,-3.4,29.12,ESE,112,2.7,2.7,48,0.00,,---,0.00,VWS V14.01,2013-01-13 11:21:00,
2013-01-13 05:27:00,12.6,-3.4,29.12,ENE,74,0.0,3.1,48,0.00,,---,0.00,VWS V14.01,2013-01-13 11:27:00,
2013-01-13 05:32:00,12.6,-3.4,29.15,NNE,16,2.2,2.2,48,0.00,,---,0.00,VWS V14.01,2013-01-13 11:32:00,
2013-01-13 05:38:00,12.2,-3.7,29.15,NNE,23,3.1,3.1,48,0.00,,---,0.00,VWS V14.01,2013-01-13 11:38:00,
2013-01-13 05:44:00,12.2,-3.7,29.15,NNE,13,0.0,3.1,48,0.00,,---,0.00,VWS V14.01,2013-01-13 11:44:00,
2013-01-13 05:49:00,12.2,-3.7,29.12,NNE,13,0.0,0.0,48,0.00,,---,0.00,VWS V14.01,2013-01-13 11:49:00,
2013-01-13 05:55:00,12.0,-3.9,29.12,NE,46,2.2,2.2,48,0.00,,---,0.00,VWS V14.01,2013-01-13 11:55:00,
2013-01-13 06:00:00,12.0,-3.9,29.15,ESE,111,2.7,2.7,48,0.00,,---,0.00,VWS V14.01,2013-01-13 12:00:00,
2013-01-13 06:06:00,12.0,-3.9,29.15,NE,37,2.7,3.1,48,0.00,,---,0.00,VWS V14.01,2013-01-13 12:06:00,
2013-01-13 06:11:00,12.0,-3.9,29.15,SE,143,0.0,2.7,48,0.00,,---,0.00,VWS V14.01,2013-01-13 12:11:00,
2013-01-13 06:17:00,12.0,-3.9,29.15,ENE,63,0.0,0.0,48,0.00,,---,0.00,VWS V14.01,2013-01-13 12:17:00,
2013-01-13 06:22:00,12.0,-3.9,29.15,NNE,29,3.6,3.6,48,0.00,,---,0.00,VWS V14.01,2013-01-13 12:22:00,
2013-01-13 06:27:00,12.0,-3.9,29.15,NW,305,2.7,2.7,48,0.00,,---,0.00,VWS V14.01,2013-01-13 12:27:00,
2013-01-13 06:33:00,12.0,-3.9,29.15,ENE,72,0.0,3.6,48,0.00,,---,0.00,VWS V14.01,2013-01-13 12:33:00,
2013-01-13 06:38:00,12.0,-3.9,29.15,NNE,18,0.0,2.7,48,0.00,,---,0.00,VWS V14.01,2013-01-13 12:38:00,
2013-01-13 06:44:00,12.0,-3.9,29.15,SSE,158,3.1,3.1,48,0.00,,---,0.00,VWS V14.01,2013-01-13 12:44:00,
2013-01-13 06:49:00,12.0,-3.9,29.18,NE,34,0.0,0.0,48,0.00,,---,0.00,VWS V14.01,2013-01-13 12:49:00,
2013-01-13 06:54:00,12.0,-3.9,29.18,NNE,25,0.0,0.0,48,0.00,,---,0.00,VWS V14.01,2013-01-13 12:54:00,
2013-01-13 06:59:00,12.0,-3.9,29.18,NE,56,0.0,0.0,48,0.00,,---,0.00,VWS V14.01,2013-01-13 12:59:00,
2013-01-13 07:05:00,12.0,-3.9,29.18,NNE,26,0.0,0.0,48,0.00,,---,0.00,VWS V14.01,2013-01-13 13:05:00,
2013-01-13 07:10:00,12.2,-3.7,29.18,NE,35,0.0,0.0,48,0.00,,---,0.00,VWS V14.01,2013-01-13 13:10:00,
2013-01-13 07:16:00,12.2,-3.7,29.18,South,178,0.0,0.0,48,0.00,,---,0.00,VWS V14.01,2013-01-13 13:16:00,
2013-01-13 07:22:00,12.0,-3.9,29.18,West,275,0.0,0.0,48,0.00,,---,0.00,VWS V14.01,2013-01-13 13:22:00,
2013-01-13 07:27:00,12.0,-3.9,29.18,NE,36,0.0,0.0,48,0.00,,---,0.00,VWS V14.01,2013-01-13 13:27:00,
2013-01-13 07:33:00,12.0,-3.9,29.18,ENE,57,0.0,0.0,48,0.00,,---,0.00,VWS V14.01,2013-01-13 13:33:00,
2013-01-13 07:38:00,12.0,-3.9,29.18,East,84,3.1,3.1,48,0.00,,---,0.00,VWS V14.01,2013-01-13 13:38:00,
2013-01-13 07:44:00,12.0,-3.9,29.18,North,11,0.0,0.0,48,0.00,,---,0.00,VWS V14.01,2013-01-13 13:44:00,
2013-01-13 07:50:00,12.2,-3.7,29.18,ENE,62,0.0,0.0,48,0.00,,---,0.00,VWS V14.01,2013-01-13 13:50:00,
2013-01-13 07:55:00,12.0,-3.9,29.18,ESE,115,2.7,2.7,48,0.00,,---,0.00,VWS V14.01,2013-01-13 13:55:00,
2013-01-13 08:01:00,12.0,-3.9,29.21,WSW,254,4.9,4.9,48,0.00,,---,0.00,VWS V14.01,2013-01-13 14:01:00,
2013-01-13 08:06:00,11.8,-4.1,29.21,NE,55,3.1,3.1,48,0.00,,---,0.00,VWS V14.01,2013-01-13 14:06:00,
2013-01-13 08:12:00,11.8,-4.1,29.21,ENE,72,0.0,0.0,48,0.00,,---,0.00,VWS V14.01,2013-01-13 14:12:00,
2013-01-13 08:17:00,11.8,-4.1,29.21,NE,35,3.1,3.1,48,0.00,,---,0.00,VWS V14.01,2013-01-13 14:17:00,
2013-01-13 08:23:00,11.8,-4.1,29.21,SE,129,2.7,2.7,48,0.00,,---,0.00,VWS V14.01,2013-01-13 14:23:00,
2013-01-13 08:28:00,12.2,-3.7,29.21,ESE,110,0.0,0.0,48,0.00,,---,0.00,VWS V14.01,2013-01-13 14:28:00,
2013-01-13 08:34:00,12.2,-3.7,29.21,NNE,17,2.2,2.2,48,0.00,,---,0.00,VWS V14.01,2013-01-13 14:34:00,
2013-01-13 08:40:00,13.5,-2.6,29.21,NE,52,0.0,0.0,48,0.00,,---,0.00,VWS V14.01,2013-01-13 14:40:00,
2013-01-13 08:46:00,14.9,0.1,29.21,NNE,14,0.0,3.1,51,0.00,,---,0.00,VWS V14.01,2013-01-13 14:46:00,
2013-01-13 08:51:00,16.3,1.0,29.21,East,93,2.2,3.6,50,0.00,,---,0.00,VWS V14.01,2013-01-13 14:51:00,
2013-01-13 08:57:00,16.3,1.0,29.21,NNE,15,6.3,6.3,50,0.00,,---,0.00,VWS V14.01,2013-01-13 14:57:00,
2013-01-13 09:02:00,18.3,1.9,29.24,ENE,71,4.0,4.0,48,0.00,,---,0.00,VWS V14.01,2013-01-13 15:02:00,
2013-01-13 09:08:00,19.4,2.0,29.24,North,2,3.1,3.1,46,0.00,,---,0.00,VWS V14.01,2013-01-13 15:08:00,
2013-01-13 09:14:00,20.1,1.2,29.24,NE,45,4.0,4.0,43,0.00,,---,0.00,VWS V14.01,2013-01-13 15:14:00,
2013-01-13 09:19:00,20.1,1.2,29.24,ENE,64,3.6,3.6,43,0.00,,---,0.00,VWS V14.01,2013-01-13 15:19:00,
2013-01-13 09:25:00,20.8,1.9,29.24,ENE,67,4.0,4.0,43,0.00,,---,0.00,VWS V14.01,2013-01-13 15:25:00,
2013-01-13 09:30:00,22.5,2.3,29.24,ESE,106,3.6,3.6,41,0.00,,---,0.00,VWS V14.01,2013-01-13 15:30:00,
2013-01-13 09:35:00,22.8,2.7,29.24,North,10,2.7,3.6,41,0.00,,---,0.00,VWS V14.01,2013-01-13 15:35:00,
2013-01-13 09:41:00,24.1,4.3,29.24,NNE,25,3.1,3.1,42,0.00,,---,0.00,VWS V14.01,2013-01-13 15:41:00,
2013-01-13 09:47:00,24.1,4.3,29.24,East,80,2.7,2.7,42,0.00,,---,0.00,VWS V14.01,2013-01-13 15:47:00,
2013-01-13 09:52:00,24.1,4.3,29.24,NNE,23,3.6,3.6,42,0.00,,---,0.00,VWS V14.01,2013-01-13 15:52:00,
2013-01-13 09:57:00,26.4,3.7,29.24,NE,48,5.4,7.2,37,0.00,,---,0.00,VWS V14.01,2013-01-13 15:57:00,
2013-01-13 10:02:00,26.4,3.7,29.24,NE,52,2.7,2.7,37,0.00,,---,0.00,VWS V14.01,2013-01-13 16:02:00,
2013-01-13 10:08:00,27.7,4.8,29.24,NW,312,0.0,0.0,37,0.00,,---,0.00,VWS V14.01,2013-01-13 16:08:00,
2013-01-13 10:13:00,28.8,5.2,29.24,ESE,116,2.7,2.7,36,0.00,,---,0.00,VWS V14.01,2013-01-13 16:13:00,
2013-01-13 10:18:00,28.8,5.2,29.24,SSE,153,3.1,4.9,36,0.00,,---,0.00,VWS V14.01,2013-01-13 16:18:00,
2013-01-13 10:23:00,29.7,5.4,29.24,NE,51,4.0,4.0,35,0.00,,---,0.00,VWS V14.01,2013-01-13 16:23:00,
2013-01-13 10:29:00,29.7,5.4,29.24,NNE,26,3.1,3.1,35,0.00,,---,0.00,VWS V14.01,2013-01-13 16:29:00,
2013-01-13 10:35:00,32.5,7.3,29.24,NE,54,3.1,3.6,34,0.00,,---,0.00,VWS V14.01,2013-01-13 16:35:00,
2013-01-13 10:40:00,32.5,7.3,29.24,NNE,31,0.0,0.0,34,0.00,,---,0.00,VWS V14.01,2013-01-13 16:40:00,
2013-01-13 10:46:00,33.3,7.9,29.24,ESE,105,3.1,3.1,34,0.00,,---,0.00,VWS V14.01,2013-01-13 16:46:00,
2013-01-13 10:52:00,32.7,6.1,29.24,NE,42,3.1,3.1,32,0.00,,---,0.00,VWS V14.01,2013-01-13 16:52:00,
2013-01-13 10:57:00,33.1,6.4,29.24,NE,42,3.1,3.1,32,0.00,,---,0.00,VWS V14.01,2013-01-13 16:57:00,
2013-01-13 11:03:00,33.3,6.6,29.24,SW,227,3.6,3.6,32,0.00,,---,0.00,VWS V14.01,2013-01-13 17:03:00,
2013-01-13 11:08:00,34.5,7.7,29.24,NE,48,0.0,0.0,32,0.00,,---,0.00,VWS V14.01,2013-01-13 17:08:00,
2013-01-13 11:14:00,34.5,7.0,29.24,NNE,23,3.1,3.1,31,0.00,,---,0.00,VWS V14.01,2013-01-13 17:14:00,
2013-01-13 11:20:00,34.9,7.3,29.24,ESE,108,2.7,3.6,31,0.00,,---,0.00,VWS V14.01,2013-01-13 17:20:00,
2013-01-13 11:25:00,34.9,7.3,29.24,NNE,26,5.4,5.4,31,0.00,,---,0.00,VWS V14.01,2013-01-13 17:25:00,
2013-01-13 11:31:00,35.4,7.8,29.24,SE,142,0.0,0.0,31,0.00,,---,0.00,VWS V14.01,2013-01-13 17:31:00,
2013-01-13 11:36:00,35.4,7.8,29.24,NE,38,3.1,3.1,31,0.00,,---,0.00,VWS V14.01,2013-01-13 17:36:00,
2013-01-13 11:41:00,35.2,6.9,29.24,ENE,72,3.1,3.1,30,0.00,,---,0.00,VWS V14.01,2013-01-13 17:41:00,
2013-01-13 11:46:00,35.1,6.8,29.24,East,82,6.3,6.3,30,0.00,,---,0.00,VWS V14.01,2013-01-13 17:46:00,
2013-01-13 11:51:00,35.2,6.9,29.24,NE,52,3.1,3.1,30,0.00,,---,0.00,VWS V14.01,2013-01-13 17:51:00,
2013-01-13 11:56:00,35.4,7.1,29.24,SSE,160,2.7,2.7,30,0.00,,---,0.00,VWS V14.01,2013-01-13 17:56:00,
2013-01-13 12:02:00,35.4,7.1,29.24,NE,47,3.6,3.6,30,0.00,,---,0.00,VWS V14.01,2013-01-13 18:02:00,
2013-01-13 12:07:00,37.4,8.1,29.24,ENE,67,4.0,4.0,29,0.00,,---,0.00,VWS V14.01,2013-01-13 18:07:00,
2013-01-13 12:12:00,38.1,8.7,29.21,NNE,27,5.8,5.8,29,0.00,,---,0.00,VWS V14.01,2013-01-13 18:12:00,
2013-01-13 12:17:00,38.1,8.7,29.21,ESE,111,3.1,3.1,29,0.00,,---,0.00,VWS V14.01,2013-01-13 18:17:00,
2013-01-13 12:23:00,37.8,8.4,29.21,ENE,62,4.0,4.9,29,0.00,,---,0.00,VWS V14.01,2013-01-13 18:23:00,
2013-01-13 12:28:00,37.6,8.2,29.21,NE,42,4.0,4.0,29,0.00,,---,0.00,VWS V14.01,2013-01-13 18:28:00,
2013-01-13 12:34:00,37.9,8.5,29.21,East,86,4.0,4.0,29,0.00,,---,0.00,VWS V14.01,2013-01-13 18:34:00,
2013-01-13 12:39:00,37.9,8.5,29.21,SSE,161,2.7,2.7,29,0.00,,---,0.00,VWS V14.01,2013-01-13 18:39:00,
2013-01-13 12:45:00,38.1,8.7,29.21,NE,42,3.6,4.0,29,0.00,,---,0.00,VWS V14.01,2013-01-13 18:45:00,
2013-01-13 12:50:00,38.5,9.0,29.21,SE,135,4.9,4.9,29,0.00,,---,0.00,VWS V14.01,2013-01-13 18:50:00,
2013-01-13 12:56:00,38.3,6.4,29.21,ENE,68,2.2,2.2,26,0.00,,---,0.00,VWS V14.01,2013-01-13 18:56:00,
2013-01-13 13:01:00,38.3,6.4,29.21,East,89,2.7,2.7,26,0.00,,---,0.00,VWS V14.01,2013-01-13 19:01:00,
2013-01-13 13:06:00,39.2,7.2,29.21,SSE,162,3.6,3.6,26,0.00,,---,0.00,VWS V14.01,2013-01-13 19:06:00,
2013-01-13 13:12:00,38.3,6.4,29.21,ENE,67,3.1,3.1,26,0.00,,---,0.00,VWS V14.01,2013-01-13 19:12:00,
2013-01-13 13:17:00,38.3,6.4,29.21,West,278,3.6,3.6,26,0.00,,---,0.00,VWS V14.01,2013-01-13 19:17:00,
2013-01-13 13:23:00,38.3,4.7,29.21,South,186,0.0,0.0,24,0.00,,---,0.00,VWS V14.01,2013-01-13 19:23:00,
2013-01-13 13:28:00,38.5,6.6,29.21,NE,43,4.9,4.9,26,0.00,,---,0.00,VWS V14.01,2013-01-13 19:28:00,
2013-01-13 13:34:00,39.4,4.7,29.21,SE,135,3.1,3.1,23,0.00,,---,0.00,VWS V14.01,2013-01-13 19:34:00,
2013-01-13 13:39:00,39.4,4.7,29.21,SE,138,0.0,5.4,23,0.00,,---,0.00,VWS V14.01,2013-01-13 19:39:00,
2013-01-13 13:45:00,39.4,4.7,29.21,SSE,147,3.1,3.1,23,0.00,,---,0.00,VWS V14.01,2013-01-13 19:45:00,
2013-01-13 13:50:00,37.0,1.7,29.21,North,357,3.1,3.1,22,0.00,,---,0.00,VWS V14.01,2013-01-13 19:50:00,
2013-01-13 13:55:00,36.7,3.3,29.21,ENE,77,3.6,3.6,24,0.00,,---,0.00,VWS V14.01,2013-01-13 19:55:00,
2013-01-13 14:01:00,37.4,3.9,29.21,SSE,149,0.0,0.0,24,0.00,,---,0.00,VWS V14.01,2013-01-13 20:01:00,
2013-01-13 14:06:00,38.7,5.0,29.21,SSE,151,2.2,2.7,24,0.00,,---,0.00,VWS V14.01,2013-01-13 20:06:00,
2013-01-13 14:12:00,38.7,5.0,29.18,ESE,112,2.2,2.2,24,0.00,,---,0.00,VWS V14.01,2013-01-13 20:12:00,
2013-01-13 14:17:00,39.9,5.1,29.18,South,189,2.7,2.7,23,0.00,,---,0.00,VWS V14.01,2013-01-13 20:17:00,
2013-01-13 14:23:00,40.1,3.3,29.21,NE,53,3.6,3.6,21,0.00,,---,0.00,VWS V14.01,2013-01-13 20:23:00,
2013-01-13 14:29:00,39.9,3.2,29.21,SE,129,2.2,3.1,21,0.00,,---,0.00,VWS V14.01,2013-01-13 20:29:00,
2013-01-13 14:34:00,39.9,3.2,29.21,SE,135,0.0,0.0,21,0.00,,---,0.00,VWS V14.01,2013-01-13 20:34:00,
2013-01-13 14:40:00,39.2,2.6,29.18,East,96,2.7,2.7,21,0.00,,---,0.00,VWS V14.01,2013-01-13 20:40:00,
2013-01-13 14:45:00,39.0,2.4,29.18,ESE,113,2.7,2.7,21,0.00,,---,0.00,VWS V14.01,2013-01-13 20:45:00,
2013-01-13 14:51:00,38.8,2.3,29.21,NE,55,2.7,2.7,21,0.00,,---,0.00,VWS V14.01,2013-01-13 20:51:00,
2013-01-13 14:56:00,39.4,2.7,29.21,NNE,31,3.1,3.1,21,0.00,,---,0.00,VWS V14.01,2013-01-13 20:56:00,
2013-01-13 15:02:00,39.6,2.9,29.21,ESE,106,0.0,0.0,21,0.00,,---,0.00,VWS V14.01,2013-01-13 21:02:00,
2013-01-13 15:08:00,38.7,2.1,29.21,ENE,59,0.0,0.0,21,0.00,,---,0.00,VWS V14.01,2013-01-13 21:08:00,
2013-01-13 15:13:00,38.5,2.0,29.21,South,170,0.0,0.0,21,0.00,,---,0.00,VWS V14.01,2013-01-13 21:13:00,
2013-01-13 15:19:00,37.6,1.2,29.21,North,0,3.1,3.1,21,0.00,,---,0.00,VWS V14.01,2013-01-13 21:19:00,
2013-01-13 15:24:00,37.0,1.7,29.21,ENE,58,0.0,0.0,22,0.00,,---,0.00,VWS V14.01,2013-01-13 21:24:00,
2013-01-13 15:29:00,37.0,1.7,29.21,NE,37,2.7,2.7,22,0.00,,---,0.00,VWS V14.01,2013-01-13 21:29:00,
2013-01-13 15:34:00,36.7,1.4,29.21,West,269,3.1,3.1,22,0.00,,---,0.00,VWS V14.01,2013-01-13 21:34:00,
2013-01-13 15:40:00,36.9,1.6,29.21,NE,35,2.7,2.7,22,0.00,,---,0.00,VWS V14.01,2013-01-13 21:40:00,
2013-01-13 15:45:00,37.0,1.7,29.21,ESE,112,0.0,0.0,22,0.00,,---,0.00,VWS V14.01,2013-01-13 21:45:00,
2013-01-13 15:50:00,36.7,1.4,29.24,NE,36,3.6,3.6,22,0.00,,---,0.00,VWS V14.01,2013-01-13 21:50:00,
2013-01-13 15:55:00,36.7,1.4,29.24,South,176,2.7,2.7,22,0.00,,---,0.00,VWS V14.01,2013-01-13 21:55:00,
2013-01-13 16:01:00,36.7,1.4,29.24,North,349,0.0,3.6,22,0.00,,---,0.00,VWS V14.01,2013-01-13 22:01:00,
2013-01-13 16:06:00,36.0,0.8,29.24,NE,47,3.1,3.1,22,0.00,,---,0.00,VWS V14.01,2013-01-13 22:06:00,
2013-01-13 16:11:00,35.1,0.1,29.24,NNE,18,3.6,3.6,22,0.00,,---,0.00,VWS V14.01,2013-01-13 22:11:00,
2013-01-13 16:17:00,34.7,-0.2,29.24,ESE,113,2.2,2.2,22,0.00,,---,0.00,VWS V14.01,2013-01-13 22:17:00,
2013-01-13 16:22:00,34.0,-0.9,29.24,ENE,71,0.0,0.0,22,0.00,,---,0.00,VWS V14.01,2013-01-13 22:22:00,
2013-01-13 16:27:00,33.6,-0.2,29.24,WSW,251,0.0,0.0,23,0.00,,---,0.00,VWS V14.01,2013-01-13 22:27:00,
2013-01-13 16:33:00,31.1,-2.4,29.24,SSW,195,0.0,0.0,23,0.00,,---,0.00,VWS V14.01,2013-01-13 22:33:00,
2013-01-13 16:39:00,30.6,-2.8,29.24,SE,142,0.0,0.0,23,0.00,,---,0.00,VWS V14.01,2013-01-13 22:39:00,
2013-01-13 16:44:00,28.6,-4.5,29.24,North,349,2.2,2.2,23,0.00,,---,0.00,VWS V14.01,2013-01-13 22:44:00,
2013-01-13 16:50:00,27.5,-5.4,29.24,SE,135,3.1,3.1,23,0.00,,---,0.00,VWS V14.01,2013-01-13 22:50:00,
2013-01-13 16:55:00,27.3,-5.6,29.24,SE,135,3.1,3.1,23,0.00,,---,0.00,VWS V14.01,2013-01-13 22:55:00,
2013-01-13 17:01:00,26.4,-5.5,29.24,SE,145,0.0,0.0,24,0.00,,---,0.00,VWS V14.01,2013-01-13 23:01:00,
2013-01-13 17:07:00,26.1,-5.8,29.24,SE,139,0.0,0.0,24,0.00,,---,0.00,VWS V14.01,2013-01-13 23:07:00,
2013-01-13 17:12:00,25.7,-6.1,29.24,NE,56,0.0,0.0,24,0.00,,---,0.00,VWS V14.01,2013-01-13 23:12:00,
2013-01-13 17:18:00,25.3,-6.4,29.24,South,179,0.0,0.0,24,0.00,,---,0.00,VWS V14.01,2013-01-13 23:18:00,
2013-01-13 17:23:00,24.8,-6.9,29.24,South,179,0.0,0.0,24,0.00,,---,0.00,VWS V14.01,2013-01-13 23:23:00,
2013-01-13 17:29:00,24.4,-7.2,29.24,South,187,0.0,0.0,24,0.00,,---,0.00,VWS V14.01,2013-01-13 23:29:00,
2013-01-13 17:35:00,24.3,-7.3,29.24,South,187,0.0,0.0,24,0.00,,---,0.00,VWS V14.01,2013-01-13 23:35:00,
2013-01-13 17:40:00,23.5,-7.9,29.24,SSW,203,0.0,0.0,24,0.00,,---,0.00,VWS V14.01,2013-01-13 23:40:00,
2013-01-13 17:45:00,23.4,-8.1,29.24,SSW,203,0.0,0.0,24,0.00,,---,0.00,VWS V14.01,2013-01-13 23:45:00,
2013-01-13 17:50:00,23.0,-7.6,29.24,SSW,203,0.0,0.0,25,0.00,,---,0.00,VWS V14.01,2013-01-13 23:50:00,
2013-01-13 17:56:00,22.8,-7.7,29.24,SSW,203,0.0,0.0,25,0.00,,---,0.00,VWS V14.01,2013-01-13 23:56:00,
2013-01-13 18:01:00,22.3,-8.2,29.24,SSW,203,0.0,0.0,25,0.00,,---,0.00,VWS V14.01,2013-01-14 00:01:00,
2013-01-13 18:07:00,21.6,-8.8,29.24,SSW,203,0.0,0.0,25,0.00,,---,0.00,VWS V14.01,2013-01-14 00:07:00,
2013-01-13 18:12:00,21.4,-9.0,29.24,SSW,203,0.0,0.0,25,0.00,,---,0.00,VWS V14.01,2013-01-14 00:12:00,
2013-01-13 18:18:00,20.8,-9.4,29.24,SSW,203,0.0,0.0,25,0.00,,---,0.00,VWS V14.01,2013-01-14 00:18:00,
2013-01-13 18:23:00,20.8,-9.4,29.24,SSW,203,0.0,0.0,25,0.00,,---,0.00,VWS V14.01,2013-01-14 00:23:00,
2013-01-13 18:29:00,20.8,-9.4,29.24,SSW,203,0.0,0.0,25,0.00,,---,0.00,VWS V14.01,2013-01-14 00:29:00,
2013-01-13 18:34:00,20.1,-10.1,29.24,SSW,203,0.0,0.0,25,0.00,,---,0.00,VWS V14.01,2013-01-14 00:34:00,
2013-01-13 18:39:00,20.1,-10.1,29.24,SSW,203,0.0,0.0,25,0.00,,---,0.00,VWS V14.01,2013-01-14 00:39:00,
2013-01-13 18:44:00,19.8,-10.4,29.24,SSW,203,0.0,0.0,25,0.00,,---,0.00,VWS V14.01,2013-01-14 00:44:00,
2013-01-13 18:50:00,19.6,-9.0,29.24,SSW,203,0.0,0.0,27,0.00,,---,0.00,VWS V14.01,2013-01-14 00:50:00,
2013-01-13 18:55:00,19.4,-8.4,29.24,SSW,203,0.0,0.0,28,0.00,,---,0.00,VWS V14.01,2013-01-14 00:55:00,
2013-01-13 19:01:00,19.2,-8.5,29.27,SSW,203,0.0,0.0,28,0.00,,---,0.00,VWS V14.01,2013-01-14 01:01:00,
2013-01-13 19:06:00,19.0,-8.7,29.27,SSW,203,0.0,0.0,28,0.00,,---,0.00,VWS V14.01,2013-01-14 01:06:00,
2013-01-13 19:11:00,18.7,-9.0,29.27,SSW,203,0.0,0.0,28,0.00,,---,0.00,VWS V14.01,2013-01-14 01:11:00,
2013-01-13 19:16:00,18.5,-7.8,29.27,SSW,203,0.0,0.0,30,0.00,,---,0.00,VWS V14.01,2013-01-14 01:16:00,
2013-01-13 19:22:00,18.3,-7.9,29.27,SSW,203,0.0,0.0,30,0.00,,---,0.00,VWS V14.01,2013-01-14 01:22:00,
2013-01-13 19:28:00,18.0,-8.2,29.27,SSW,203,0.0,0.0,30,0.00,,---,0.00,VWS V14.01,2013-01-14 01:28:00,
2013-01-13 19:34:00,18.0,-8.2,29.27,SSW,203,0.0,0.0,30,0.00,,---,0.00,VWS V14.01,2013-01-14 01:34:00,
2013-01-13 19:39:00,17.4,-6.8,29.27,SSW,203,0.0,0.0,33,0.00,,---,0.00,VWS V14.01,2013-01-14 01:39:00,
2013-01-13 19:44:00,17.1,-6.5,29.27,SSW,203,0.0,0.0,34,0.00,,---,0.00,VWS V14.01,2013-01-14 01:44:00,
2013-01-13 19:50:00,16.9,-6.6,29.27,SSW,203,0.0,0.0,34,0.00,,---,0.00,VWS V14.01,2013-01-14 01:50:00,
2013-01-13 19:56:00,16.9,-6.6,29.27,SSW,203,0.0,0.0,34,0.00,,---,0.00,VWS V14.01,2013-01-14 01:56:00,
2013-01-13 20:01:00,16.7,-6.8,29.27,SSW,203,0.0,0.0,34,0.00,,---,0.00,VWS V14.01,2013-01-14 02:01:00,
2013-01-13 20:07:00,16.2,-7.3,29.27,SSW,203,0.0,0.0,34,0.00,,---,0.00,VWS V14.01,2013-01-14 02:07:00,
2013-01-13 20:13:00,15.8,-7.0,29.27,SSW,203,0.0,0.0,35,0.00,,---,0.00,VWS V14.01,2013-01-14 02:13:00,
2013-01-13 20:18:00,15.6,-7.2,29.27,SSW,203,0.0,0.0,35,0.00,,---,0.00,VWS V14.01,2013-01-14 02:18:00,
2013-01-13 20:24:00,15.8,-7.0,29.27,SSW,203,0.0,0.0,35,0.00,,---,0.00,VWS V14.01,2013-01-14 02:24:00,
2013-01-13 20:30:00,15.8,-6.4,29.27,SSW,203,0.0,0.0,36,0.00,,---,0.00,VWS V14.01,2013-01-14 02:30:00,
2013-01-13 20:36:00,16.0,-6.2,29.27,SSW,204,0.0,0.0,36,0.00,,---,0.00,VWS V14.01,2013-01-14 02:36:00,
2013-01-13 20:42:00,16.0,-6.2,29.27,SSW,204,0.0,0.0,36,0.00,,---,0.00,VWS V14.01,2013-01-14 02:42:00,
2013-01-13 20:47:00,16.0,-6.2,29.27,SSW,204,0.0,0.0,36,0.00,,---,0.00,VWS V14.01,2013-01-14 02:47:00,
2013-01-13 20:53:00,16.2,-6.1,29.27,SSW,204,0.0,0.0,36,0.00,,---,0.00,VWS V14.01,2013-01-14 02:53:00,
2013-01-13 20:59:00,16.2,-6.1,29.27,SSW,204,0.0,0.0,36,0.00,,---,0.00,VWS V14.01,2013-01-14 02:59:00,
2013-01-13 21:04:00,16.2,-6.1,29.27,SSW,204,0.0,0.0,36,0.00,,---,0.00,VWS V14.01,2013-01-14 03:04:00,
2013-01-13 21:10:00,16.0,-6.2,29.27,SSW,204,0.0,0.0,36,0.00,,---,0.00,VWS V14.01,2013-01-14 03:10:00,
2013-01-13 21:15:00,16.0,-6.2,29.27,SSW,204,0.0,0.0,36,0.00,,---,0.00,VWS V14.01,2013-01-14 03:15:00,
2013-01-13 21:21:00,15.8,-5.8,29.30,SSW,204,0.0,0.0,37,0.00,,---,0.00,VWS V14.01,2013-01-14 03:21:00,
2013-01-13 21:27:00,15.8,-5.8,29.30,SSW,204,0.0,0.0,37,0.00,,---,0.00,VWS V14.01,2013-01-14 03:27:00,
2013-01-13 21:33:00,15.6,-6.0,29.30,SSW,204,0.0,0.0,37,0.00,,---,0.00,VWS V14.01,2013-01-14 03:33:00,
2013-01-13 21:38:00,15.4,-6.2,29.30,SSW,204,0.0,0.0,37,0.00,,---,0.00,VWS V14.01,2013-01-14 03:38:00,
2013-01-13 21:44:00,15.3,-6.3,29.30,SSW,204,0.0,0.0,37,0.00,,---,0.00,VWS V14.01,2013-01-14 03:44:00,
2013-01-13 21:49:00,15.1,-5.9,29.30,SSW,204,0.0,0.0,38,0.00,,---,0.00,VWS V14.01,2013-01-14 03:49:00,
2013-01-13 21:55:00,15.1,-5.9,29.30,SSW,204,0.0,0.0,38,0.00,,---,0.00,VWS V14.01,2013-01-14 03:55:00,
2013-01-13 22:00:00,14.5,-6.4,29.30,SSW,204,0.0,0.0,38,0.00,,---,0.00,VWS V14.01,2013-01-14 04:00:00,
2013-01-13 22:06:00,14.4,-6.6,29.30,SSW,204,0.0,0.0,38,0.00,,---,0.00,VWS V14.01,2013-01-14 04:06:00,
2013-01-13 22:11:00,14.4,-6.1,29.30,SW,215,0.0,0.0,39,0.00,,---,0.00,VWS V14.01,2013-01-14 04:11:00,
2013-01-13 22:17:00,14.7,-5.2,29.30,West,265,0.0,0.0,40,0.00,,---,0.00,VWS V14.01,2013-01-14 04:17:00,
2013-01-13 22:22:00,14.7,-5.2,29.30,North,357,0.0,0.0,40,0.00,,---,0.00,VWS V14.01,2013-01-14 04:22:00,
2013-01-13 22:27:00,15.1,-4.9,29.30,North,1,0.0,0.0,40,0.00,,---,0.00,VWS V14.01,2013-01-14 04:27:00,
2013-01-13 22:33:00,15.1,-4.9,29.30,WSW,252,0.0,0.0,40,0.00,,---,0.00,VWS V14.01,2013-01-14 04:33:00,
2013-01-13 22:38:00,15.3,-4.2,29.30,West,270,0.0,0.0,41,0.00,,---,0.00,VWS V14.01,2013-01-14 04:38:00,
2013-01-13 22:44:00,15.3,-4.7,29.30,West,270,0.0,0.0,40,0.00,,---,0.00,VWS V14.01,2013-01-14 04:44:00,
2013-01-13 22:49:00,15.3,-4.7,29.30,North,6,0.0,0.0,40,0.00,,---,0.00,VWS V14.01,2013-01-14 04:49:00,
2013-01-13 22:55:00,15.1,-4.9,29.30,ENE,63,0.0,0.0,40,0.00,,---,0.00,VWS V14.01,2013-01-14 04:55:00,
2013-01-13 23:02:00,15.1,-4.4,29.30,ENE,69,0.0,0.0,41,0.00,,---,0.00,VWS V14.01,2013-01-14 05:02:00,
2013-01-13 23:03:00,15.1,-4.4,29.30,ENE,69,0.0,0.0,41,0.00,,---,0.00,VWS V14.01,2013-01-14 05:03:00,
2013-01-13 23:06:00,15.1,-4.4,29.30,SW,236,0.0,0.0,41,0.00,,---,0.00,VWS V14.01,2013-01-14 05:06:00,
2013-01-13 23:09:00,14.9,-4.5,29.30,SW,236,0.0,0.0,41,0.00,,---,0.00,VWS V14.01,2013-01-14 05:09:00,
2013-01-13 23:14:00,14.9,-4.5,29.30,SW,236,0.0,0.0,41,0.00,,---,0.00,VWS V14.01,2013-01-14 05:14:00,
2013-01-13 23:19:00,14.7,-4.7,29.30,SW,236,0.0,0.0,41,0.00,,---,0.00,VWS V14.01,2013-01-14 05:19:00,
2013-01-13 23:24:00,14.7,-4.7,29.30,North,357,0.0,0.0,41,0.00,,---,0.00,VWS V14.01,2013-01-14 05:24:00,
2013-01-13 23:30:00,14.5,-4.9,29.30,NNW,343,0.0,0.0,41,0.00,,---,0.00,VWS V14.01,2013-01-14 05:30:00,
2013-01-13 23:36:00,14.5,-4.9,29.30,NNW,343,0.0,0.0,41,0.00,,---,0.00,VWS V14.01,2013-01-14 05:36:00,
2013-01-13 23:42:00,14.5,-4.9,29.30,NNW,343,0.0,0.0,41,0.00,,---,0.00,VWS V14.01,2013-01-14 05:42:00,
2013-01-13 23:47:00,14.2,-5.2,29.30,NNW,343,0.0,0.0,41,0.00,,---,0.00,VWS V14.01,2013-01-14 05:47:00,
2013-01-13 23:52:00,14.0,-4.8,29.33,NNW,343,0.0,0.0,42,0.00,,---,0.00,VWS V14.01,2013-01-14 05:52:00,
2013-01-13 23:57:00,13.8,-5.0,29.33,NNW,343,0.0,0.0,42,0.00,,---,0.00,VWS V14.01,2013-01-14 05:57:00,